This is the latest recevied weather packets stored in our database for station/object SP2WPY-13. If no packets are shown the sender has not sent any weather packets the latest 10 day(s).
| Time | Temp. | Humidity | Pressure | Rain* | Wind** | Luminosity | Snow |
|---|---|---|---|---|---|---|---|
| 1777449999 | 7.22° C | 55% | 1032.5 hPa | - | - | - | - |
| 1777449679 | 6.67° C | 56% | 1032.5 hPa | - | - | - | - |
| 1777449405 | 6.11° C | 58% | 1032.5 hPa | - | - | - | - |
| 1777449086 | 7.22° C | 56% | 1032.4 hPa | - | - | - | - |
| 1777448765 | 6.67° C | 54% | 1032.4 hPa | - | - | - | - |
| 1777448492 | 6.67° C | 57% | 1032.3 hPa | - | - | - | - |
| 1777448171 | 6.67° C | 55% | 1032.3 hPa | - | - | - | - |
| 1777447898 | 7.22° C | 54% | 1032.3 hPa | - | - | - | - |
| 1777447579 | 7.22° C | 58% | 1032.4 hPa | - | - | - | - |
| 1777447305 | 6.67° C | 60% | 1032.4 hPa | - | - | - | - |
| 1777446985 | 6.67° C | 63% | 1032.4 hPa | - | - | - | - |
| 1777446664 | 6.67° C | 64% | 1032.3 hPa | - | - | - | - |
| 1777446390 | 6.67° C | 69% | 1032.2 hPa | - | - | - | - |
| 1777446072 | 6.67° C | 69% | 1032.2 hPa | - | - | - | - |
| 1777445796 | 6.67° C | 68% | 1032.1 hPa | - | - | - | - |
| 1777445476 | 6.67° C | 68% | 1032 hPa | - | - | - | - |
| 1777445203 | 6.67° C | 69% | 1032.1 hPa | - | - | - | - |
| 1777444883 | 6.67° C | 69% | 1032.1 hPa | - | - | - | - |
| 1777444564 | 6.67° C | 68% | 1032.1 hPa | - | - | - | - |
| 1777444289 | 6.11° C | 69% | 1032 hPa | - | - | - | - |
| 1777443970 | 6.67° C | 67% | 1032 hPa | - | - | - | - |
| 1777443696 | 6.11° C | 67% | 1032 hPa | - | - | - | - |
| 1777443376 | 6.11° C | 69% | 1032 hPa | - | - | - | - |
| 1777443102 | 6.11° C | 69% | 1031.6 hPa | - | - | - | - |
| 1777442782 | 6.11° C | 70% | 1031.8 hPa | - | - | - | - |
* Rain since midnight (hover to see other rain measurements)
** Current wind speed in m/s (hover to see current wind gust speed)